User: anonymous   Login
Location: Unspecified
(0.0000°N, 0.0000°E)
Time: 19:15:48
(UTC+00:00)
Language:

TBA - TO BE ASSIGNED - Orbit

View from above orbital plane
View from above orbital plane
View from above satellite
View from above satellite

Ground track
Ground track

The orbit is defined by the following mean orbital elements,

1 68732U          26145.58335647 +.00000000 +00000-0 +14618-2 0 00000
2 68732  97.2850   9.1463 0001527  95.6242  29.8790 15.49146228    02
Epoch (UTC): 25 May 2026 14:00:01
Eccentricity: 0.0001527
inclination: 97.2850°
perigee height: 418 km
apogee height: 420 km
right ascension of ascending node: 9.1463°
argument of perigee: 95.6242°
revolutions per day: 15.49146228
mean anomaly at epoch: 29.8790°

The dashed part of the orbit path shows where the satellite is in the earth's shadow,  

DLR